Time,TemperatureF,DewpointF,PressureIn,WindDirection,WindDirectionDegrees,WindSpeedMPH,WindSpeedGustMPH,Humidity,HourlyPrecipIn,Conditions,Clouds,dailyrainin,SoftwareType,DateUTC
2013-03-12 00:02:00,50.1,49.0,30.16,WSW,249,6.0,8.0,95,0.00,,,0.00,weatherlink.com 1.10,2013-03-12 07:02:00,
2013-03-12 00:17:00,50.3,49.0,30.16,West,278,5.0,5.0,95,0.00,,,0.00,weatherlink.com 1.10,2013-03-12 07:17:00,
2013-03-12 00:32:00,50.3,49.0,30.16,West,274,6.0,6.0,96,0.00,,,0.00,weatherlink.com 1.10,2013-03-12 07:32:00,
2013-03-12 00:47:00,49.6,49.0,30.16,WNW,283,3.0,8.0,96,0.00,,,0.00,weatherlink.com 1.10,2013-03-12 07:47:00,
2013-03-12 01:02:00,49.6,49.0,30.16,WNW,284,4.0,10.0,96,0.00,,,0.00,weatherlink.com 1.10,2013-03-12 08:02:00,
2013-03-12 01:17:00,49.4,48.0,30.16,WNW,290,3.0,8.0,96,0.00,,,0.00,weatherlink.com 1.10,2013-03-12 08:17:00,
2013-03-12 01:32:00,49.6,49.0,30.16,West,271,4.0,8.0,96,0.00,,,0.00,weatherlink.com 1.10,2013-03-12 08:32:00,
2013-03-12 01:47:00,49.4,48.0,30.16,West,263,7.0,8.0,96,0.00,,,0.00,weatherlink.com 1.10,2013-03-12 08:47:00,
2013-03-12 02:17:00,48.7,48.0,30.16,West,278,6.0,10.0,96,0.00,,,0.00,weatherlink.com 1.10,2013-03-12 09:17:00,
2013-03-12 02:32:00,48.8,48.0,30.16,West,281,3.0,6.0,97,0.00,,,0.00,weatherlink.com 1.10,2013-03-12 09:32:00,
2013-03-12 02:47:00,48.4,47.0,30.16,West,273,5.0,10.0,96,0.00,,,0.00,weatherlink.com 1.10,2013-03-12 09:47:00,
2013-03-12 03:02:00,48.0,47.0,30.16,WNW,286,3.0,10.0,97,0.00,,,0.00,weatherlink.com 1.10,2013-03-12 10:02:00,
2013-03-12 03:17:00,48.1,47.0,30.15,WNW,291,4.0,7.0,97,0.00,,,0.00,weatherlink.com 1.10,2013-03-12 10:17:00,
2013-03-12 03:32:00,48.2,48.0,30.14,WNW,283,3.0,4.0,98,0.00,,,0.00,weatherlink.com 1.10,2013-03-12 10:32:00,
2013-03-12 03:47:00,48.2,47.0,30.14,WNW,300,2.0,5.0,97,0.00,,,0.00,weatherlink.com 1.10,2013-03-12 10:47:00,
2013-03-12 04:02:00,48.0,47.0,30.14,WNW,301,0.0,4.0,97,0.00,,,0.00,weatherlink.com 1.10,2013-03-12 11:02:00,
2013-03-12 04:17:00,47.9,47.0,30.14,WNW,293,0.0,3.0,97,0.00,,,0.00,weatherlink.com 1.10,2013-03-12 11:17:00,
2013-03-12 04:32:00,47.6,47.0,30.14,ENE,58,0.0,1.0,96,0.00,,,0.00,weatherlink.com 1.10,2013-03-12 11:32:00,
2013-03-12 04:48:00,47.3,47.0,30.14,ENE,70,0.0,0.0,97,0.00,,,0.00,weatherlink.com 1.10,2013-03-12 11:48:00,
2013-03-12 05:03:00,47.2,46.0,30.14,NW,307,0.0,0.0,97,0.00,,,0.00,weatherlink.com 1.10,2013-03-12 12:03:00,
2013-03-12 05:18:00,47.0,46.0,30.14,NE,43,1.0,2.0,97,0.00,,,0.00,weatherlink.com 1.10,2013-03-12 12:18:00,
2013-03-12 05:33:00,46.9,46.0,30.14,NE,40,1.0,3.0,97,0.00,,,0.00,weatherlink.com 1.10,2013-03-12 12:33:00,
2013-03-12 05:48:00,46.7,46.0,30.14,East,98,0.0,3.0,98,0.00,,,0.00,weatherlink.com 1.10,2013-03-12 12:48:00,
2013-03-12 06:03:00,46.2,46.0,30.14,ENE,58,2.0,4.0,98,0.00,,,0.00,weatherlink.com 1.10,2013-03-12 13:03:00,
2013-03-12 06:18:00,46.0,46.0,30.14,NE,50,4.0,4.0,98,0.00,,,0.00,weatherlink.com 1.10,2013-03-12 13:18:00,
2013-03-12 06:33:00,45.8,45.0,30.14,East,91,0.0,1.0,98,0.00,,,0.00,weatherlink.com 1.10,2013-03-12 13:33:00,
2013-03-12 06:48:00,45.8,45.0,30.15,East,89,0.0,2.0,98,0.00,,,0.00,weatherlink.com 1.10,2013-03-12 13:48:00,
2013-03-12 07:03:00,45.8,45.0,30.15,East,91,0.0,0.0,98,0.00,,,0.00,weatherlink.com 1.10,2013-03-12 14:03:00,
2013-03-12 07:18:00,45.6,45.0,30.15,East,91,0.0,0.0,98,0.00,,,0.00,weatherlink.com 1.10,2013-03-12 14:18:00,
2013-03-12 07:33:00,45.6,45.0,30.15,ESE,108,0.0,0.0,98,0.00,,,0.00,weatherlink.com 1.10,2013-03-12 14:33:00,
2013-03-12 07:48:00,45.3,45.0,30.16,East,91,0.0,0.0,98,0.00,,,0.00,weatherlink.com 1.10,2013-03-12 14:48:00,
2013-03-12 08:03:00,45.5,45.0,30.16,SE,143,0.0,1.0,99,0.00,,,0.00,weatherlink.com 1.10,2013-03-12 15:03:00,
2013-03-12 08:18:00,45.3,45.0,30.17,SE,142,0.0,0.0,98,0.00,,,0.00,weatherlink.com 1.10,2013-03-12 15:18:00,
2013-03-12 08:33:00,45.5,45.0,30.17,SE,129,0.0,3.0,98,0.00,,,0.00,weatherlink.com 1.10,2013-03-12 15:33:00,
2013-03-12 08:48:00,45.8,45.0,30.17,SE,142,0.0,3.0,98,0.00,,,0.00,weatherlink.com 1.10,2013-03-12 15:48:00,
2013-03-12 09:03:00,45.6,45.0,30.18,SE,135,0.0,2.0,98,0.00,,,0.00,weatherlink.com 1.10,2013-03-12 16:03:00,
2013-03-12 09:18:00,46.4,46.0,30.18,SE,142,0.0,0.0,99,0.00,,,0.00,weatherlink.com 1.10,2013-03-12 16:18:00,
2013-03-12 09:33:00,47.1,47.0,30.18,SW,229,1.0,2.0,98,0.00,,,0.00,weatherlink.com 1.10,2013-03-12 16:33:00,
2013-03-12 09:48:00,47.2,47.0,30.19,WNW,297,1.0,4.0,98,0.00,,,0.00,weatherlink.com 1.10,2013-03-12 16:48:00,
2013-03-12 10:03:00,47.9,47.0,30.18,WNW,293,2.0,4.0,98,0.00,,,0.00,weatherlink.com 1.10,2013-03-12 17:03:00,
2013-03-12 10:18:00,49.1,49.0,30.18,West,269,2.0,6.0,98,0.00,,,0.00,weatherlink.com 1.10,2013-03-12 17:18:00,
2013-03-12 10:33:00,51.3,50.0,30.18,WNW,284,1.0,3.0,95,0.00,,,0.00,weatherlink.com 1.10,2013-03-12 17:33:00,
2013-03-12 10:48:00,53.0,51.0,30.18,WSW,249,4.0,5.0,92,0.00,,,0.00,weatherlink.com 1.10,2013-03-12 17:48:00,
2013-03-12 11:03:00,53.9,51.0,30.17,SW,225,1.0,3.0,91,0.00,,,0.00,weatherlink.com 1.10,2013-03-12 18:03:00,
2013-03-12 11:33:00,57.4,53.0,30.17,West,269,5.0,6.0,84,0.00,,,0.00,weatherlink.com 1.10,2013-03-12 18:33:00,
2013-03-12 11:48:00,57.4,53.0,30.17,NW,304,4.0,13.0,85,0.00,,,0.00,weatherlink.com 1.10,2013-03-12 18:48:00,
2013-03-12 12:03:00,56.7,53.0,30.17,NW,309,6.0,12.0,86,0.00,,,0.00,weatherlink.com 1.10,2013-03-12 19:03:00,
2013-03-12 12:18:00,55.8,52.0,30.17,WNW,288,8.0,13.0,87,0.00,,,0.00,weatherlink.com 1.10,2013-03-12 19:18:00,
2013-03-12 12:33:00,54.2,51.0,30.16,WNW,293,12.0,15.0,87,0.00,,,0.00,weatherlink.com 1.10,2013-03-12 19:33:00,
2013-03-12 12:48:00,53.6,51.0,30.16,WNW,301,10.0,13.0,89,0.00,,,0.00,weatherlink.com 1.10,2013-03-12 19:48:00,
2013-03-12 13:03:00,54.3,52.0,30.16,NW,305,9.0,16.0,90,0.00,,,0.00,weatherlink.com 1.10,2013-03-12 20:03:00,
2013-03-12 13:19:00,55.3,52.0,30.16,WNW,300,11.0,16.0,89,0.00,,,0.00,weatherlink.com 1.10,2013-03-12 20:19:00,
2013-03-12 13:34:00,55.6,52.0,30.15,WNW,301,12.0,15.0,87,0.00,,,0.00,weatherlink.com 1.10,2013-03-12 20:34:00,
2013-03-12 13:49:00,56.0,52.0,30.14,NW,309,10.0,14.0,87,0.00,,,0.00,weatherlink.com 1.10,2013-03-12 20:49:00,
2013-03-12 14:04:00,57.0,52.0,30.13,WNW,295,11.0,15.0,83,0.00,,,0.00,weatherlink.com 1.10,2013-03-12 21:04:00,
2013-03-12 14:19:00,56.5,52.0,30.13,WNW,294,9.0,15.0,84,0.00,,,0.00,weatherlink.com 1.10,2013-03-12 21:19:00,
2013-03-12 14:34:00,56.5,52.0,30.13,WNW,301,10.0,17.0,84,0.00,,,0.00,weatherlink.com 1.10,2013-03-12 21:34:00,
2013-03-12 14:49:00,56.3,51.0,30.13,WNW,297,8.0,14.0,83,0.00,,,0.00,weatherlink.com 1.10,2013-03-12 21:49:00,
2013-03-12 15:04:00,55.0,51.0,30.12,WNW,300,7.0,15.0,85,0.00,,,0.00,weatherlink.com 1.10,2013-03-12 22:04:00,
2013-03-12 15:19:00,53.6,50.0,30.13,NW,307,10.0,17.0,86,0.00,,,0.00,weatherlink.com 1.10,2013-03-12 22:19:00,
2013-03-12 15:34:00,52.2,50.0,30.13,NW,304,9.0,16.0,92,0.00,,,0.00,weatherlink.com 1.10,2013-03-12 22:34:00,
2013-03-12 15:49:00,52.4,50.0,30.13,WNW,285,9.0,16.0,90,0.00,,,0.00,weatherlink.com 1.10,2013-03-12 22:49:00,
2013-03-12 16:04:00,52.4,50.0,30.13,West,276,9.0,14.0,91,0.00,,,0.00,weatherlink.com 1.10,2013-03-12 23:04:00,
2013-03-12 16:19:00,52.5,50.0,30.13,WNW,288,10.0,12.0,92,0.00,,,0.00,weatherlink.com 1.10,2013-03-12 23:19:00,
2013-03-12 16:34:00,52.9,50.0,30.12,WNW,290,8.0,12.0,91,0.00,,,0.00,weatherlink.com 1.10,2013-03-12 23:34:00,
2013-03-12 16:50:00,53.1,51.0,30.12,WNW,301,5.0,9.0,91,0.00,,,0.00,weatherlink.com 1.10,2013-03-12 23:50:00,
2013-03-12 17:04:00,54.3,51.0,30.11,WNW,295,5.0,7.0,89,0.00,,,0.00,weatherlink.com 1.10,2013-03-13 00:04:00,
2013-03-12 17:19:00,55.4,52.0,30.11,WNW,290,5.0,8.0,89,0.00,,,0.00,weatherlink.com 1.10,2013-03-13 00:19:00,
2013-03-12 17:34:00,54.9,51.0,30.12,WNW,284,9.0,12.0,87,0.00,,,0.00,weatherlink.com 1.10,2013-03-13 00:34:00,
2013-03-12 17:49:00,51.6,49.0,30.12,West,276,10.0,13.0,92,0.00,,,0.00,weatherlink.com 1.10,2013-03-13 00:49:00,
2013-03-12 18:04:00,50.4,49.0,30.12,West,278,7.0,12.0,95,0.00,,,0.00,weatherlink.com 1.10,2013-03-13 01:04:00,
2013-03-12 18:20:00,49.5,48.0,30.12,West,270,8.0,14.0,96,0.00,,,0.00,weatherlink.com 1.10,2013-03-13 01:20:00,
2013-03-12 18:34:00,48.9,48.0,30.13,West,260,9.0,12.0,97,0.00,,,0.00,weatherlink.com 1.10,2013-03-13 01:34:00,
2013-03-12 18:49:00,48.7,48.0,30.13,WNW,291,6.0,11.0,97,0.00,,,0.00,weatherlink.com 1.10,2013-03-13 01:49:00,
2013-03-12 19:04:00,48.0,47.0,30.13,WNW,286,8.0,12.0,97,0.00,,,0.00,weatherlink.com 1.10,2013-03-13 02:04:00,
2013-03-12 19:19:00,48.0,48.0,30.14,NW,311,7.0,12.0,98,0.00,,,0.00,weatherlink.com 1.10,2013-03-13 02:19:00,
2013-03-12 19:34:00,48.3,48.0,30.14,WNW,295,7.0,12.0,99,0.00,,,0.00,weatherlink.com 1.10,2013-03-13 02:34:00,
2013-03-12 19:49:00,48.3,48.0,30.15,WNW,292,8.0,13.0,98,0.00,,,0.00,weatherlink.com 1.10,2013-03-13 02:49:00,
2013-03-12 20:04:00,48.2,48.0,30.14,WNW,297,11.0,11.0,99,0.00,,,0.00,weatherlink.com 1.10,2013-03-13 03:04:00,
2013-03-12 20:19:00,48.2,48.0,30.15,West,269,7.0,10.0,99,0.00,,,0.00,weatherlink.com 1.10,2013-03-13 03:19:00,
2013-03-12 20:34:00,47.7,47.0,30.15,WNW,290,4.0,9.0,98,0.00,,,0.00,weatherlink.com 1.10,2013-03-13 03:34:00,
2013-03-12 20:48:00,48.0,48.0,30.15,West,271,5.0,7.0,99,0.00,,,0.00,weatherlink.com 1.10,2013-03-13 03:48:00,
2013-03-12 21:04:00,47.7,48.0,30.15,West,278,3.0,7.0,99,0.00,,,0.00,weatherlink.com 1.10,2013-03-13 04:04:00,
2013-03-12 21:19:00,48.0,48.0,30.15,West,281,1.0,3.0,99,0.00,,,0.00,weatherlink.com 1.10,2013-03-13 04:19:00,
2013-03-12 21:34:00,47.7,47.0,30.15,NW,307,0.0,4.0,98,0.00,,,0.00,weatherlink.com 1.10,2013-03-13 04:34:00,
2013-03-12 21:49:00,47.3,47.0,30.15,NE,47,0.0,0.0,98,0.00,,,0.00,weatherlink.com 1.10,2013-03-13 04:49:00,
2013-03-12 22:04:00,47.2,47.0,30.15,ENE,62,0.0,3.0,99,0.00,,,0.00,weatherlink.com 1.10,2013-03-13 05:04:00,
2013-03-12 22:19:00,47.3,47.0,30.15,ENE,60,0.0,0.0,99,0.00,,,0.00,weatherlink.com 1.10,2013-03-13 05:19:00,
2013-03-12 22:34:00,47.1,47.0,30.15,ENE,76,0.0,2.0,99,0.00,,,0.00,weatherlink.com 1.10,2013-03-13 05:34:00,
2013-03-12 22:49:00,47.0,47.0,30.15,ENE,78,0.0,0.0,99,0.00,,,0.00,weatherlink.com 1.10,2013-03-13 05:49:00,
2013-03-12 23:04:00,47.1,47.0,30.16,South,172,1.0,2.0,99,0.00,,,0.00,weatherlink.com 1.10,2013-03-13 06:04:00,
2013-03-12 23:19:00,47.2,47.0,30.16,ESE,112,0.0,0.0,99,0.00,,,0.00,weatherlink.com 1.10,2013-03-13 06:19:00,
2013-03-12 23:34:00,47.2,47.0,30.16,ESE,111,0.0,0.0,99,0.00,,,0.00,weatherlink.com 1.10,2013-03-13 06:34:00,
2013-03-12 23:49:00,46.9,47.0,30.16,SE,127,0.0,0.0,99,0.00,,,0.00,weatherlink.com 1.10,2013-03-13 06:49:00,